This demonstration page uses our WeatherBlox Daily Observations layout. Learn more.

Left ArrowRight Arrow

Hourly Observations for July 29, 2015

Temp ( °F °C ) Dew Point ( °F °C ) Humidity (%) Winds ( mph kmh ) Pressure ( in mb ) Visibility ( mi km ) Precip ( " mm )
12:15 am 00:15 Clear 73 23 73 23 100 100 SW 9 15 30.03 1017 10 16.0934 0 0
12:35 am 00:35 Clear 73 23 73 23 100 100 WNW 9 15 30 1016 10 16.0934 0 0
12:55 am 00:55 Clear 73 23 73 23 100 100 Calm 30.03 1017 10 16.0934 0 0
1:15 am 01:15 Clear 73 23 73 23 100 100 SE 3 6 30.03 1017 10 16.0934 0 0
1:35 am 01:35 Clear 73 23 73 23 100 100 SSW 8 13 30.03 1017 10 16.0934 0 0
1:55 am 01:55 Clear 73 23 73 23 100 100 S 5 7 30.03 1017 10 16.0934 0 0
2:15 am 02:15 Clear 72 22 72 22 100 100 Calm 30 1016 10 16.0934 0 0
2:35 am 02:35 Clear 72 22 72 22 100 100 Calm 30 1016 10 16.0934 0 0
2:55 am 02:55 Clear 72 22 72 22 100 100 Calm 30 1016 10 16.0934 0 0
3:15 am 03:15 Partly Cloudy 72 22 72 22 100 100 Calm 30 1016 10 16.0934 0 0
3:35 am 03:35 Mostly Cloudy 72 22 72 22 100 100 Calm 30 1016 7 11.26538 0 0
3:55 am 03:55 Cloudy with Mist and Fog 72 22 72 22 100 100 Calm 30 1016 4 6.43736 0 0
4:15 am 04:15 Cloudy with Mist and Fog 72 22 72 22 100 100 SSW 3 6 30 1016 1 1.60934 0 0
4:35 am 04:35 Cloudy with Fog 72 22 72 22 100 100 Calm 30 1016 0.5 0.80467 0 0
4:55 am 04:55 Cloudy with Mist and Fog 72 22 72 22 100 100 Calm 30 1016 0.75 1.207005 0 0
5:15 am 05:15 Cloudy with Fog 72 22 72 22 100 100 W 3 6 30 1016 0.5 0.80467 0 0
5:35 am 05:35 Cloudy with Mist and Fog 72 22 72 22 100 100 W 5 7 30 1016 4 6.43736 0 0
5:55 am 05:55 Cloudy with Mist and Fog 72 22 72 22 100 100 Calm 30 1016 3 4.82802 0 0
6:15 am 06:15 Cloudy with Mist and Fog 72 22 72 22 100 100 Calm 30 1016 2.5 4.02335 0 0
6:35 am 06:35 Cloudy with Mist and Fog 72 22 72 22 100 100 Calm 30.03 1017 5 8.0467 0 0
6:55 am 06:55 Cloudy with Mist and Fog 72 22 72 22 100 100 Calm 30.03 1017 5 8.0467 0 0
7:15 am 07:15 Cloudy with Mist and Fog 72 22 72 22 100 100 Calm 30 1016 2.5 4.02335 0 0
7:35 am 07:35 Cloudy 73 23 73 23 100 100 Calm 30.03 1017 7 11.26538 0 0
7:55 am 07:55 Cloudy with Mist and Fog 73 23 73 23 100 100 SSW 7 11 30.03 1017 4 6.43736 0 0
8:15 am 08:15 Cloudy with Mist and Fog 73 23 73 23 100 100 SSW 3 6 30.03 1017 5 8.0467 0 0
8:35 am 08:35 Cloudy 75 24 75 24 100 100 SSW 5 7 30.03 1017 7 11.26538 0 0
8:55 am 08:55 Cloudy 77 25 75 24 94 94 SSW 8 13 30.03 1017 10 16.0934 0 0
9:15 am 09:15 Cloudy 77 25 75 24 94 94 SSW 7 11 30.03 1017 10 16.0934 0 0
9:35 am 09:35 Cloudy 79 26 77 25 94 94 SSW 9 15 30.03 1017 10 16.0934 0 0
9:55 am 09:55 Cloudy 79 26 77 25 94 94 SW 5 7 30.03 1017 10 16.0934 0 0
10:15 am 10:15 Cloudy 81 27 77 25 89 89 SSW 9 15 30.03 1017 10 16.0934 0 0
10:35 am 10:35 Cloudy 82 28 77 25 84 84 S 9 15 30.03 1017 10 16.0934 0 0
10:55 am 10:55 Mostly Cloudy 82 28 77 25 84 84 S 7 11 30.03 1017 10 16.0934 0 0
11:15 am 11:15 Mostly Cloudy 84 29 75 24 74 74 SSW 8 13 30.03 1017 10 16.0934 0 0
11:35 am 11:35 Mostly Cloudy 86 30 77 25 75 75 S 9 15 30.03 1017 10 16.0934 0 0
11:55 am 11:55 Mostly Cloudy 86 30 77 25 75 75 S 7 11 30.03 1017 10 16.0934 0 0
12:15 pm 12:15 Mostly Cloudy 88 31 77 25 70 70 S 7 11 30 1016 10 16.0934 0 0
12:35 pm 12:35 Mostly Cloudy 86 30 79 26 79 79 SSW 9 15 30.03 1017 10 16.0934 0 0
12:55 pm 12:55 Mostly Cloudy 88 31 79 26 75 75 W 9 15 29.97 1015 10 16.0934 0 0
1:15 pm 13:15 Cloudy with Light Rain 82 28 79 26 89 89 WSW 8 13 30.03 1017 10 16.0934 0 0
1:35 pm 13:35 Partly Cloudy 82 28 79 26 89 89 W 3 6 30 1016 10 16.0934 0 0
1:55 pm 13:55 Partly Cloudy 86 30 81 27 84 84 WNW 7 11 30 1016 10 16.0934 0 0
2:15 pm 14:15 Partly Cloudy 88 31 79 26 75 75 SSW 8 13 29.97 1015 10 16.0934 0 0
2:35 pm 14:35 Mostly Cloudy 90 32 77 25 67 67 S 8 13 29.94 1014 10 16.0934 0 0
2:55 pm 14:55 Mostly Cloudy 90 32 77 25 67 67 S 12 19 29.94 1014 10 16.0934 0 0
3:15 pm 15:15 Mostly Cloudy 91 33 75 24 59 59 S 9 15 29.94 1014 10 16.0934 0 0
3:35 pm 15:35 Partly Cloudy 90 32 77 25 67 67 S 6 9 29.94 1014 10 16.0934 0 0
3:55 pm 15:55 Partly Cloudy 91 33 77 25 63 63 S 16 26 29.94 1014 10 16.0934 0 0
4:15 pm 16:15 Sunny 90 32 77 25 67 67 SSW 9 15 29.94 1014 10 16.0934 0 0
4:35 pm 16:35 Partly Cloudy 90 32 77 25 67 67 S 9 15 29.94 1014 10 16.0934 0 0
4:55 pm 16:55 Partly Cloudy 90 32 77 25 67 67 S 12 19 29.94 1014 10 16.0934 0 0
5:15 pm 17:15 Partly Cloudy 90 32 77 25 67 67 S 9 15 29.91 1013 10 16.0934 0 0
5:35 pm 17:35 Mostly Cloudy 90 32 77 25 67 67 S 18 30 29.91 1013 10 16.0934 0 0
5:55 pm 17:55 Partly Cloudy 88 31 77 25 70 70 S 18 30 29.91 1013 10 16.0934 0 0
6:15 pm 18:15 Sunny 88 31 77 25 70 70 SSW 14 22 29.91 1013 10 16.0934 0 0
6:35 pm 18:35 Sunny 88 31 77 25 70 70 S 14 22 29.91 1013 10 16.0934 0 0
6:55 pm 18:55 Sunny 88 31 77 25 70 70 SSW 12 19 29.91 1013 10 16.0934 0 0
7:15 pm 19:15 Partly Cloudy 86 30 77 25 75 75 S 8 13 29.91 1013 10 16.0934 0 0
7:35 pm 19:35 Partly Cloudy 86 30 77 25 75 75 S 6 9 29.94 1014 10 16.0934 0 0
7:55 pm 19:55 Sunny 86 30 77 25 75 75 S 6 9 29.94 1014 10 16.0934 0 0
8:15 pm 20:15 Sunny 84 29 77 25 79 79 S 9 15 29.97 1015 10 16.0934 0 0
8:35 pm 20:35 Clear 82 28 77 25 84 84 S 9 15 29.97 1015 10 16.0934 0 0
8:55 pm 20:55 Clear 82 28 77 25 84 84 S 6 9 29.97 1015 10 16.0934 0 0
9:15 pm 21:15 Clear 81 27 77 25 89 89 S 5 7 29.97 1015 10 16.0934 0 0
9:35 pm 21:35 Partly Cloudy 81 27 77 25 89 89 S 8 13 29.97 1015 10 16.0934 0 0
9:55 pm 21:55 Clear 81 27 77 25 89 89 S 10 17 29.97 1015 10 16.0934 0 0
10:15 pm 22:15 Partly Cloudy 81 27 77 25 89 89 S 9 15 29.97 1015 10 16.0934 0 0
10:35 pm 22:35 Clear 81 27 77 25 89 89 S 12 19 29.97 1015 10 16.0934 0 0
10:55 pm 22:55 Clear 81 27 75 24 84 84 S 13 20 29.97 1015 10 16.0934 0 0
11:15 pm 23:15 Clear 81 27 75 24 84 84 S 13 20 29.97 1015 10 16.0934 0 0
11:35 pm 23:35 Clear 79 26 75 24 89 89 SSW 13 20 29.97 1015 10 16.0934 0 0
11:55 pm 23:55 Partly Cloudy 79 26 75 24 89 89 SSW 13 20 29.97 1015 10 16.0934 0 0

Powered by AerisWeather